Simultaneous Nadir Overpasses (SNOs) Predictions

Prediction of SNOs between GOES-15 and NOAA-20 Satellite Orbit:

Table of predicted SNOs for the next 14.0 days since TLE Epoch: 8/28/2020
Index Date Time (GOES-15) GOES-15 Lat,Lon NOAA-20 Lat,Lon Distance(km) Time Diff (sec)
1 08/29/2020 09:55:05 -0.07,-127.70 -0.16,-127.30 46.40 80
2 08/31/2020 21:58:16 0.07,-127.73 0.02,-128.07 38.66 80
3 09/01/2020 21:39:31 0.07,-127.77 1.03,-123.54 482.12 80
4 09/03/2020 09:58:38 -0.08,-127.89 0.11,-128.81 104.76 80
5 09/04/2020 09:42:32 -0.07,-127.93 -0.89,-124.28 415.91 80
6 09/05/2020 22:04:28 0.08,-127.91 -0.30,-129.58 189.85 80
7 09/06/2020 21:43:02 0.08,-127.95 0.70,-125.04 330.42 80
8 09/08/2020 10:04:50 -0.08,-128.06 0.44,-130.32 257.52 80
9 09/09/2020 09:48:45 -0.08,-128.09 -0.63,-125.80 262.42 80
10 09/10/2020 22:10:40 0.09,-128.07 -0.57,-131.10 344.45 80
